Salt Lake City, UT

10:50 AM MST on February 22, 2017 (GMT -0700)
Salt Lake City International

Weather History for KSLC - October, 2012

Change the Weather History Date:

Friday, October 26, 2012

  Actual Average Record
Temperature  
Mean Temperature 39 °F 49 °F  
Max Temperature 48 °F 60 °F 80 °F (1977)
Min Temperature 29 °F 38 °F 22 °F (1878)
Degree Days  
Heating Degree Days 26 16  
Month to date heating degree days 257 294  
Since 1 July heating degree days 264 383  
Cooling Degree Days 0 0  
Month to date cooling degree days 7 5  
Year to date cooling degree days 1615 1158  
Moisture  
Dew Point 27 °F    
Average Humidity 65    
Maximum Humidity 92    
Minimum Humidity 38    
Precipitation  
Precipitation 0.00 in 0.06 in 0.90 in (1982)
Month to date precipitation 1.53 1.26  
Year to date precipitation 9.62 12.98  
Snow  
Snow 0.00 in 0.00 in 1.60 in (1984)
Month to date snowfall 0.3 0.9  
Since 1 July snowfall 0.3 0.9  
Snow Depth 0.00 in    
Sea Level Pressure  
Sea Level Pressure 30.35 in    
Wind  
Wind Speed 8 mph (SE)    
Max Wind Speed 20 mph    
Max Gust Speed 24 mph    
Visibility 10 miles    
Events      
T = Trace of Precipitation, MM = Missing Value Source: NWS Daily Summary

Daily Weather History Graph

Daily Weather History Graph

Search for Another Location

Airport or City:

Trip Planner

Search our weather history database for the weather conditions in past years. The results will help you decide how hot, cold, wet, or windy it might be!

Date:

Astronomy

Oct. 26, 2012 Rise Set
Actual Time 7:52 AM MDT 6:30 PM MDT
Civil Twilight 7:23 AM MDT 6:59 PM MDT
Nautical Twilight 6:51 AM MDT 7:31 PM MDT
Astronomical Twilight 6:19 AM MDT 8:02 PM MDT
Moon 4:49 PM MDT (10/26) 4:51 AM MDT (10/26)
Length of Visible Light 11h 35m
Length of Day
10h 38m
Waxing Gibbous, 91% of the Moon is Illuminated
Oct 26
Waxing Gibbous
Oct 29
Full
Nov 6
Last Quarter
Nov 13
New
Nov 20
First Quarter

Hourly Weather History & Observations

Time (MDT) Temp. Windchill Dew Point Humidity Pressure Visibility Wind Dir Wind Speed Gust Speed Precip Events Conditions
12:53 AM 34.0 °F 29.8 °F 30.9 °F 89% 30.44 in 10.0 mi South 4.6 mph - N/A   Mostly Cloudy
1:53 AM 32.0 °F 26.4 °F 30.9 °F 96% 30.45 in 6.0 mi SSE 5.8 mph - N/A   Scattered Clouds
2:53 AM 32.0 °F 25.6 °F 30.0 °F 92% 30.41 in 10.0 mi SE 6.9 mph - N/A   Partly Cloudy
3:53 AM 30.9 °F 25.2 °F 26.1 °F 82% 30.42 in 10.0 mi South 5.8 mph - N/A   Partly Cloudy
4:53 AM 30.9 °F 25.2 °F 25.0 °F 79% 30.41 in 10.0 mi SSE 5.8 mph - N/A   Clear
5:53 AM 28.9 °F 22.8 °F 25.0 °F 85% 30.47 in 10.0 mi ESE 5.8 mph - N/A   Clear
6:53 AM 30.0 °F 23.2 °F 27.0 °F 88% 30.48 in 10.0 mi SE 6.9 mph - N/A   Clear
7:53 AM 30.0 °F 23.2 °F 24.1 °F 79% 30.49 in 10.0 mi SE 6.9 mph - N/A   Scattered Clouds
8:53 AM 32.0 °F 23.0 °F 24.8 °F 75% 30.45 in 10.0 mi SE 11.5 mph - N/A   Scattered Clouds
9:53 AM 35.1 °F 26.9 °F 28.0 °F 76% 30.51 in 10.0 mi SSE 11.5 mph - N/A   Scattered Clouds
10:53 AM 37.0 °F 28.9 °F 28.9 °F 73% 30.45 in 10.0 mi SE 12.7 mph - N/A   Scattered Clouds
11:53 AM 41.0 °F 35.2 °F 30.9 °F 67% 30.46 in 10.0 mi SSE 9.2 mph - N/A   Scattered Clouds
12:53 PM 43.0 °F 39.5 °F 30.0 °F 60% 30.42 in 10.0 mi Variable 5.8 mph - N/A   Scattered Clouds
1:53 PM 45.0 °F 39.3 °F 28.0 °F 52% 30.37 in 10.0 mi SSE 11.5 mph - N/A   Scattered Clouds
2:53 PM 46.9 °F - 23.0 °F 39% 30.31 in 10.0 mi South 11.5 mph - N/A   Scattered Clouds
3:53 PM 48.0 °F - 21.9 °F 36% 30.27 in 10.0 mi South 9.2 mph 18.4 mph N/A   Scattered Clouds
4:53 PM 48.0 °F - 24.1 °F 39% 30.24 in 10.0 mi SSW 8.1 mph - N/A   Scattered Clouds
5:53 PM 46.9 °F - 21.0 °F 36% 30.23 in 10.0 mi South 8.1 mph - N/A   Mostly Cloudy
6:53 PM 42.1 °F 40.2 °F 28.0 °F 58% 30.19 in 10.0 mi North 3.5 mph - N/A   Mostly Cloudy
7:53 PM 44.1 °F 42.5 °F 30.0 °F 58% 30.22 in 10.0 mi NE 3.5 mph - N/A   Mostly Cloudy
8:53 PM 43.0 °F 39.5 °F 26.1 °F 51% 30.20 in 10.0 mi SE 5.8 mph - N/A   Mostly Cloudy
9:53 PM 44.1 °F - 24.1 °F 45% 30.19 in 10.0 mi Calm Calm - N/A   Mostly Cloudy
10:53 PM 41.0 °F 37.1 °F 30.9 °F 67% 30.19 in 10.0 mi North 5.8 mph - N/A   Mostly Cloudy
11:53 PM 42.1 °F 40.2 °F 32.0 °F 67% 30.19 in 10.0 mi North 3.5 mph - N/A   Mostly Cloudy